Home   Weather   Sherbrooke   Past weeks

Flag for Canada Past Weather in Sherbrooke, Quebec, Canada — Yesterday and Last 2 Weeks

Now
72 °F

Scattered clouds.


Feels Like: 77 °F
Forecast: 53 / 70 °F
Wind: 13 mph from West

Location: Sherbrooke

Current Time: Apr 28, 2017 at 2:15:02 pm

Latest Report: Apr 28, 2017 at 1:00 pm


Visibility: 9 mi

Pressure: 29.90 "Hg

Humidity: 50%

Dew Point: 52 °F

Location of SherbrookeLocation

Past Weather in Sherbrooke — Graph

°F

Sherbrooke Temperature Yesterday

Maximum temperature yesterday: 73 °F (at 1:00 pm)
Minimum temperature yesterday: 48 °F (at 2:00 am)
Average temperature yesterday: 61 °F

High & Low Weather Summary for the Past Weeks

 TemperatureHumidityPressure
High73 °F (Apr 27, 1:00 pm)100% (Apr 16, 3:29 am)30.51 "Hg (Apr 16, 3:29 am)
Low25 °F (Apr 14, 6:00 am)22% (Apr 15, 12:00 pm)29.57 "Hg (Apr 16, 5:00 pm)
Average46 °F80%30.04 "Hg
* Reported Apr 13 1:00 pm — Apr 28 1:00 pm, Sherbrooke, Weather by CustomWeather, © 2017

Note: Actual official high and low records may vary slightly from our data, if they occured in-between our weather recording intervals... More about our weather records

Advertising

Sherbrooke Weather History for the Previous 24 Hours

Scroll right to see more
 ConditionsComfort  
Time TempWeatherWind HumidityBarometerVisibility
1:00 pm
Fri, Apr 28
72 °FScattered clouds.13 mph50%29.90 "Hg9 mi
12:00 pm72 °FPartly sunny.14 mph44%29.90 "Hg9 mi
11:00 am72 °FBroken clouds.17 mph50%29.90 "Hg9 mi
10:00 am70 °FCloudy.14 mph64%29.89 "Hg9 mi
9:00 am66 °FOvercast.9 mph78%29.88 "Hg9 mi
8:00 am63 °FMore clouds than sun.5 mph83%29.87 "Hg9 mi
7:19 am59 °FMore clouds than sun.2 mph94%29.85 "Hg9 mi
7:03 am59 °FLight rain. Cloudy.2 mph88%29.85 "Hg9 mi
6:00 am57 °FOvercast.No wind88%29.85 "Hg9 mi
5:00 am57 °FOvercast.No wind88%29.83 "Hg9 mi
4:00 am57 °FPassing clouds.3 mph88%29.82 "Hg9 mi
3:00 am59 °FPassing clouds.7 mph82%29.81 "Hg9 mi
2:00 am59 °FOvercast.8 mph82%29.84 "Hg9 mi
1:00 am57 °FPassing clouds.7 mph88%29.83 "Hg9 mi
12:00 am59 °FOvercast.9 mph82%29.82 "Hg9 mi
11:00 pm
Thu, Apr 27
59 °FClear.8 mph82%29.83 "Hg9 mi
10:00 pm61 °FClear.14 mph83%29.83 "Hg9 mi
9:00 pm63 °FPassing clouds.14 mph77%29.82 "Hg9 mi
8:00 pm66 °FPassing clouds.10 mph73%29.81 "Hg9 mi
7:00 pm70 °FOvercast.10 mph64%29.80 "Hg9 mi
6:00 pm73 °FPassing clouds.12 mph57%29.81 "Hg9 mi
5:00 pm73 °FBroken clouds.12 mph57%29.81 "Hg9 mi
4:00 pm73 °FOvercast.12 mph57%29.83 "Hg9 mi
3:00 pm73 °FOvercast.14 mph57%29.84 "Hg8 mi
2:00 pm73 °FOvercast.6 mph53%29.83 "Hg9 mi
Weather by CustomWeather, © 2017

See weather overviewHow to use our weather pages